Location: Bazugues
(43.4465°N, 0.3432°E)
Time: 15:18:52
(UTC+00:00)

Cosmos 1850 Rocket - Visible Passes

Search period start: 19 April 2026 00:00
Search period end: 29 April 2026 00:00
Orbit: 750 x 780 km, 74.0° (Epoch: 19 April)

Date Brightness Start Highest point End Pass type
(mag) Time Alt. Az. Time Alt. Az. Time Alt. Az.
19 Apr 5.6 00:06:29 10° N 00:09:24 31° N 00:09:24 31° N visible
19 Apr 6.4 01:49:16 10° NW 01:49:35 11° NW 01:49:35 11° NW visible
19 Apr 5.8 23:28:53 10° N 23:31:59 25° NNE 23:31:59 25° NNE visible
20 Apr 6.1 01:10:42 10° NW 01:12:11 18° NW 01:12:11 18° NW visible
20 Apr 6.1 22:51:33 10° N 22:54:37 18° NE 22:54:37 18° NE visible
21 Apr 5.7 00:32:30 10° NNW 00:34:48 26° NNW 00:34:48 26° NNW visible
21 Apr 6.4 22:15:01 10° NNE 22:16:44 12° NE 22:17:15 11° NE visible
21 Apr 5.4 23:54:31 10° NNW 23:57:26 34° N 23:57:26 34° N visible
22 Apr 5.4 23:16:45 10° N 23:20:06 34° NNE 23:20:06 34° NNE visible
23 Apr 6.3 00:59:19 10° NW 01:00:17 14° NW 01:00:17 14° NW visible
23 Apr 5.6 22:39:11 10° N 22:42:46 26° NE 22:42:46 26° NE visible
24 Apr 5.8 00:20:51 10° NW 00:22:58 23° NW 00:22:58 23° NW visible
24 Apr 6.0 22:01:56 10° NNE 22:05:16 17° NE 22:05:28 17° NE visible
24 Apr 5.3 23:42:41 10° NNW 23:45:40 35° NNW 23:45:40 35° NNW visible
25 Apr 6.4 21:25:52 10° NE 21:26:51 10° NE 21:27:51 10° ENE visible
25 Apr 4.9 23:04:45 10° NNW 23:08:23 44° N 23:08:23 44° N visible
26 Apr 6.5 00:48:24 10° WNW 00:48:34 10° WNW 00:48:34 10° WNW visible
26 Apr 5.0 22:27:00 10° N 22:31:06 37° NE 22:31:06 37° NE visible
27 Apr 6.0 00:09:24 10° NW 00:11:18 19° WNW 00:11:18 19° WNW visible
27 Apr 5.4 21:49:29 10° N 21:53:42 24° ENE 21:53:52 24° ENE visible
27 Apr 5.4 23:31:00 10° NNW 23:34:04 32° NW 23:34:04 32° NW visible
28 Apr 5.9 21:12:20 10° NNE 21:15:24 16° NE 21:16:38 14° ENE visible
28 Apr 4.6 22:52:53 10° NNW 22:56:50 53° NNW 22:56:50 53° NNW visible
